{"data":{"norad_id":41729,"intl_designator":"2016-050A","name":"JCSAT-16","alt_names":[],"object_type":"PAYLOAD","status":"ACTIVE","operator":null,"country":"JPN","launch_date":"2016-08-14","launch_site_code":"AFETR","launch_vehicle":null,"mission":null,"orbit_class":"UNKNOWN","rcs_meters":18.8988,"size_class":null,"mass_kg":null,"dimensions":null,"purposes":["comms"],"wikipedia_slug":null,"has_3d_model":false,"image_url":null,"decayed_at":null,"tle_current":{"epoch":"2026-05-25T05:02:38.473728Z","epoch_age_seconds":56924,"freshness":"FRESH","line1":"1 41729U 16050A   26145.21016752  .00000000  00000+0  00000+0 0  9995","line2":"2 41729   0.0163 319.0508 0001188 108.6208  34.7252  1.00268180 35843","mean_motion":1.0026818,"eccentricity":0.0001188,"inclination_deg":0.0163,"raan_deg":319.0508,"arg_perigee_deg":108.6208,"mean_anomaly_deg":34.7252,"bstar":0,"rev_number":3584,"period_min":1436.1485368539,"perigee_km":35782.596313614,"apogee_km":35792.614894056,"semimajor_km":42165.742603835,"source":"CELESTRAK","updated_at":"2026-05-25T13:38:14.005778Z"}}}